TimePDT,TemperatureF,Dew PointF,Humidity,Sea Level PressureIn,VisibilityMPH,Wind Direction,Wind SpeedMPH,Gust SpeedMPH,PrecipitationIn,Events,Conditions,WindDirDegrees,DateUTC
12:52 AM,32.0,3.0,29,30.04,-9999.0,SSE,9.2,-,N/A,,Unknown,150,2012-10-08 07:52:00
1:52 AM,27.0,-0.0,31,30.05,-9999.0,SSE,6.9,-,N/A,,Unknown,160,2012-10-08 08:52:00
2:52 AM,28.0,-0.0,30,30.03,-9999.0,SSE,4.6,-,N/A,,Unknown,160,2012-10-08 09:52:00
3:52 AM,28.9,3.0,33,30.01,-9999.0,SSE,4.6,-,N/A,,Unknown,150,2012-10-08 10:52:00
4:52 AM,28.0,1.9,33,30.02,-9999.0,SSE,4.6,-,N/A,,Unknown,160,2012-10-08 11:52:00
5:52 AM,24.1,-0.0,35,30.03,-9999.0,NNE,4.6,-,N/A,,Unknown,30,2012-10-08 12:52:00
6:52 AM,26.1,1.9,35,30.05,-9999.0,Calm,Calm,-,N/A,,Unknown,0,2012-10-08 13:52:00
7:52 AM,35.1,5.0,28,30.06,-9999.0,Calm,Calm,-,N/A,,Unknown,0,2012-10-08 14:52:00
8:52 AM,42.1,6.1,23,30.06,-9999.0,Calm,Calm,-,N/A,,Unknown,0,2012-10-08 15:52:00
9:52 AM,48.9,8.1,19,30.04,-9999.0,Calm,Calm,-,N/A,,Unknown,0,2012-10-08 16:52:00
10:52 AM,55.9,10.0,16,30.02,-9999.0,NW,3.5,-,N/A,,Unknown,310,2012-10-08 17:52:00
11:52 AM,63.0,10.0,13,29.99,-9999.0,North,3.5,-,N/A,,Unknown,360,2012-10-08 18:52:00
12:52 PM,64.9,8.1,11,29.98,-9999.0,Calm,Calm,-,N/A,,Unknown,0,2012-10-08 19:52:00
1:52 PM,69.1,7.0,9,29.95,-9999.0,Calm,Calm,-,N/A,,Unknown,0,2012-10-08 20:52:00
2:52 PM,70.0,6.1,8,29.93,-9999.0,Calm,Calm,-,N/A,,Unknown,0,2012-10-08 21:52:00
3:52 PM,72.0,3.9,7,29.91,-9999.0,West,4.6,-,N/A,,Unknown,260,2012-10-08 22:52:00
4:52 PM,73.9,3.0,6,29.90,-9999.0,Variable,4.6,-,N/A,,Unknown,0,2012-10-08 23:52:00
5:52 PM,70.0,3.9,7,29.91,-9999.0,ENE,4.6,-,N/A,,Unknown,60,2012-10-09 00:52:00
6:52 PM,57.9,3.0,11,29.94,-9999.0,East,9.2,-,N/A,,Unknown,80,2012-10-09 01:52:00
7:52 PM,57.0,3.9,12,29.93,-9999.0,East,10.4,-,N/A,,Unknown,80,2012-10-09 02:52:00
8:52 PM,46.0,1.9,16,29.95,-9999.0,SW,3.5,-,N/A,,Unknown,230,2012-10-09 03:52:00
9:52 PM,46.9,1.0,15,29.95,-9999.0,Calm,Calm,-,N/A,,Unknown,0,2012-10-09 04:52:00
10:52 PM,37.0,-0.9,20,29.96,-9999.0,SSW,4.6,-,N/A,,Unknown,200,2012-10-09 05:52:00
11:52 PM,37.0,-2.0,19,29.96,-9999.0,Calm,Calm,-,N/A,,Unknown,0,2012-10-09 06:52:00